DW7267 Weather Reports


Display with metric or nautical units.
time (UTC)temp
F
wind
direction
speed
MPH
gust
MPH
rain 1hr
in
rain 24hr
in
rain mn
in
humidity
%
barometer
mb
20260902110301 57 112 0.0 0.0 0.00 0.00 0.00 94 1022.9
20260902110026 57 112 0.0 0.0 0.00 0.00 0.00 94 1022.9
20260902105253 57 112 0.0 0.0 0.00 0.00 0.00 94 1022.9
20260902104751 57 112 0.0 1.0 0.00 0.00 0.00 94 1023.0
20260902104249 57 112 0.0 1.0 0.00 0.00 0.00 94 1023.0
20260902104021 57 112 0.0 1.0 0.00 0.00 0.00 94 1023.0
20260902102746 56 113 0.0 1.0 0.00 0.00 0.00 94 1023.0
20260902102244 57 112 0.0 1.0 0.00 0.00 0.00 93 1023.1
20260902102017 57 112 0.0 1.0 0.00 0.00 0.00 94 1023.1
20260902101515 57 112 0.0 1.0 0.00 0.00 0.00 94 1023.1
20260902100745 56 112 0.0 1.0 0.00 0.00 0.00 93 1023.1
20260902100241 56 112 0.0 1.0 0.00 0.00 0.00 93 1023.1
20260902095739 56 112 0.0 1.0 0.00 0.00 0.00 93 1023.1
20260902095239 56 112 0.0 0.0 0.00 0.00 0.00 93 1023.1
20260902094739 57 112 0.0 0.0 0.00 0.00 0.00 93 1023.2
20260902094508 57 112 0.0 0.0 0.00 0.00 0.00 93 1023.2
20260902093738 57 112 0.0 1.0 0.00 0.00 0.00 93 1023.1
20260902093232 57 112 0.0 1.0 0.00 0.00 0.00 93 1023.1
20260902092732 57 112 0.0 1.0 0.00 0.00 0.00 92 1023.0
20260902092233 57 112 0.0 1.0 0.00 0.00 0.00 93 1023.0
20260902091733 57 112 0.0 0.0 0.00 0.00 0.00 92 1023.0
20260902091231 57 112 0.0 3.0 0.00 0.00 0.00 92 1023.1
20260902090731 58 112 0.0 3.0 0.00 0.00 0.00 92 1023.1
20260902090225 58 113 1.0 3.0 0.00 0.00 0.00 92 1023.0
20260902085723 58 123 1.0 3.0 0.00 0.00 0.00 93 1023.1
20260902085451 58 100 1.0 3.0 0.00 0.00 0.00 93 1023.1
20260902084719 57 115 0.0 1.0 0.00 0.00 0.00 93 1023.2
20260902084219 57 115 0.0 1.0 0.00 0.00 0.00 92 1023.2
20260902083713 57 115 0.0 1.0 0.00 0.00 0.00 92 1023.4
20260902083211 57 115 0.0 2.0 0.00 0.00 0.00 92 1023.4
20260902082709 57 115 0.0 2.0 0.00 0.00 0.00 92 1023.2
20260902082207 57 148 0.0 2.0 0.00 0.00 0.00 92 1023.4
20260902081159 57 148 0.0 2.0 0.00 0.00 0.00 92 1023.2
20260902080701 57 149 0.0 2.0 0.00 0.00 0.00 92 1023.2
20260902080431 57 149 0.0 2.0 0.00 0.00 0.00 92 1023.4
20260902075933 58 123 0.0 1.0 0.00 0.00 0.00 91 1023.2
20260902075201 58 121 0.0 1.0 0.00 0.00 0.00 91 1023.2
20260902074703 58 120 0.0 0.0 0.00 0.00 0.00 91 1023.2
20260902074427 58 121 0.0 0.0 0.00 0.00 0.00 91 1023.2
20260902073653 58 120 0.0 0.0 0.00 0.00 0.00 91 1023.2
20260902073423 58 120 0.0 1.0 0.00 0.00 0.00 91 1023.2
20260902072649 58 120 0.0 1.0 0.00 0.00 0.00 91 1023.2
20260902072150 58 120 0.0 1.0 0.00 0.00 0.00 90 1023.1
20260902071643 58 120 0.0 1.0 0.00 0.00 0.00 90 1023.2
20260902071140 58 120 0.0 0.0 0.00 0.00 0.00 90 1023.1
20260902070639 58 121 0.0 2.0 0.00 0.00 0.00 90 1023.1
20260902070140 58 120 0.0 2.0 0.00 0.00 0.00 90 1023.2
20260902065641 59 120 0.0 3.0 0.00 0.00 0.00 89 1023.2
20260902065142 59 120 0.0 3.0 0.00 0.00 0.00 89 1023.2
20260902064634 59 103 0.0 1.0 0.00 0.00 0.00 88 1023.4
20260902064407 59 104 0.0 0.0 0.00 0.00 0.00 88 1023.2
20260902063634 59 104 0.0 0.0 0.00 0.00 0.00 87 1023.4
20260902063135 60 103 0.0 0.0 0.00 0.00 0.00 87 1023.4
20260902062635 60 104 0.0 6.0 0.00 0.00 0.00 86 1023.4
20260902062136 60 104 1.0 6.0 0.00 0.00 0.00 86 1023.4
20260902061632 61 104 2.0 7.0 0.00 0.00 0.00 86 1023.2
20260902060631 60 85 2.0 5.0 0.00 0.00 0.00 87 1023.5
20260902060131 60 92 1.0 5.0 0.00 0.00 0.00 87 1023.5
20260902055629 60 104 1.0 4.0 0.00 0.00 0.00 88 1023.5
20260902055129 60 101 2.0 4.0 0.00 0.00 0.00 88 1023.5
20260902054855 60 93 2.0 4.0 0.00 0.00 0.00 88 1023.5
20260902054125 60 102 1.0 3.0 0.00 0.00 0.00 89 1023.5
20260902053623 60 105 0.0 3.0 0.00 0.00 0.00 88 1023.5
20260902053123 60 112 0.0 3.0 0.00 0.00 0.00 88 1023.4
20260902052623 60 93 0.0 3.0 0.00 0.00 0.00 88 1023.4
20260902052125 60 94 0.0 2.0 0.00 0.00 0.00 88 1023.4
20260902051621 60 94 0.0 2.0 0.00 0.00 0.00 87 1023.5
20260902051119 60 93 0.0 2.0 0.00 0.00 0.00 87 1023.4
20260902050117 60 93 0.0 3.0 0.00 0.00 0.00 87 1023.4
20260902045618 60 122 0.0 1.0 0.00 0.00 0.00 87 1023.4
20260902045117 61 122 0.0 0.0 0.00 0.00 0.00 86 1023.5
20260902044610 61 122 0.0 2.0 0.00 0.00 0.00 86 1023.4
20260902044341 61 122 0.0 2.0 0.00 0.00 0.00 86 1023.4
20260902043839 61 122 0.0 3.0 0.00 0.00 0.00 85 1023.4
20260902043105 61 122 0.0 3.0 0.00 0.00 0.00 85 1023.2
20260902042605 61 92 0.0 3.0 0.00 0.00 0.00 85 1023.2
20260902042058 61 100 0.0 3.0 0.00 0.00 0.00 86 1023.1
20260902041558 61 100 0.0 3.0 0.00 0.00 0.00 86 1023.1
20260902041059 61 235 0.0 1.0 0.00 0.00 0.00 86 1023.0
20260902040556 61 236 0.0 0.0 0.00 0.00 0.00 86 1023.0
20260902040057 61 235 0.0 0.0 0.00 0.00 0.00 86 1023.0
20260902035557 61 236 0.0 0.0 0.00 0.00 0.00 85 1022.9
20260902035051 61 235 0.0 0.0 0.00 0.00 0.00 84 1022.9
20260902034549 62 235 0.0 0.0 0.00 0.00 0.00 83 1022.8
20260902034047 62 235 0.0 0.0 0.00 0.00 0.00 83 1022.8
20260902033545 62 235 0.0 0.0 0.00 0.00 0.00 82 1022.6
20260902033316 63 236 0.0 0.0 0.00 0.00 0.00 82 1022.5
20260902032811 63 235 0.0 0.0 0.00 0.00 0.00 81 1022.4
20260902032037 63 235 0.0 0.0 0.00 0.00 0.00 81 1022.4
20260902031809 64 235 0.0 0.0 0.00 0.00 0.00 80 1022.3
20260902031039 64 235 0.0 0.0 0.00 0.00 0.00 79 1022.3
20260902030540 64 235 0.0 0.0 0.00 0.00 0.00 79 1022.3
20260902030041 65 235 0.0 0.0 0.00 0.00 0.00 77 1022.2
20260902025534 65 235 0.0 0.0 0.00 0.00 0.00 77 1022.0
20260902025034 65 235 0.0 0.0 0.00 0.00 0.00 76 1022.0
20260902024536 66 235 0.0 0.0 0.00 0.00 0.00 74 1022.0
20260902024306 66 235 0.0 0.0 0.00 0.00 0.00 73 1021.9
20260902023533 67 235 0.0 0.0 0.00 0.00 0.00 72 1021.8
20260902023032 67 235 0.0 0.0 0.00 0.00 0.00 71 1021.8
20260902022530 68 235 0.0 0.0 0.00 0.00 0.00 69 1021.7
20260902022031 69 235 0.0 0.0 0.00 0.00 0.00 67 1021.6
20260902021531 69 235 0.0 0.0 0.00 0.00 0.00 66 1021.7
20260902021029 70 235 0.0 0.0 0.00 0.00 0.00 65 1021.6
20260902020527 71 235 0.0 0.0 0.00 0.00 0.00 63 1021.6
20260902020257 71 235 0.0 3.0 0.00 0.00 0.00 61 1021.6
20260902015523 72 235 0.0 3.0 0.00 0.00 0.00 60 1021.6
20260902015256 72 252 0.0 6.0 0.00 0.00 0.00 59 1021.5
20260902014525 73 252 0.0 6.0 0.00 0.00 0.00 58 1021.5
20260902014024 73 251 1.0 6.0 0.00 0.00 0.00 57 1021.5
20260902013522 73 252 1.0 6.0 0.00 0.00 0.00 56 1021.5
20260902013022 74 231 1.0 7.0 0.00 0.00 0.00 56 1021.7
20260902012519 74 234 1.0 7.0 0.00 0.00 0.00 56 1021.6
20260902012248 74 262 1.0 7.0 0.00 0.00 0.00 55 1021.6
20260902011018 75 248 2.0 7.0 0.00 0.00 0.00 53 1021.5
20260902010517 76 251 2.0 7.0 0.00 0.00 0.00 53 1021.5
20260902010019 77 250 1.0 6.0 0.00 0.00 0.00 52 1021.6
20260902005519 77 240 1.0 6.0 0.00 0.00 0.00 52 1021.6
20260902005017 77 172 2.0 6.0 0.00 0.00 0.00 52 1021.6
20260902004517 76 212 1.0 7.0 0.00 0.00 0.00 52 1021.7
20260902004017 76 261 1.0 7.0 0.00 0.00 0.00 52 1021.6
20260902003516 76 261 1.0 8.0 0.00 0.00 0.00 52 1021.7
20260902003244 77 250 2.0 8.0 0.00 0.00 0.00 50 1021.7
20260902002513 78 195 2.0 8.0 0.00 0.00 0.00 50 1021.8
20260902002006 78 252 2.0 8.0 0.00 0.00 0.00 49 1021.8
20260902001507 78 223 2.0 7.0 0.00 0.00 0.00 50 1021.7
20260902001006 78 212 1.0 6.0 0.00 0.00 0.00 49 1021.8
20260902000508 79 252 2.0 9.0 0.00 0.00 0.00 48 1021.8
20260902000007 78 182 2.0 9.0 0.00 0.00 0.00 49 1021.8
20260901235508 78 205 2.0 9.0 0.00 0.00 0.00 50 1021.7
20260901235000 78 244 3.0 9.0 0.00 0.00 0.00 49 1021.7
20260901234502 78 241 3.0 8.0 0.00 0.00 0.00 49 1021.8
20260901234001 78 259 2.0 8.0 0.00 0.00 0.00 49 1021.8
20260901233502 78 250 0.0 6.0 0.00 0.00 0.00 50 1021.8
20260901233001 77 274 1.0 6.0 0.00 0.00 0.00 52 1021.8
20260901232501 77 206 3.0 6.0 0.00 0.00 0.00 50 1022.0
20260901231954 76 200 2.0 6.0 0.00 0.00 0.00 52 1021.9
20260901231454 76 240 2.0 8.0 0.00 0.00 0.00 50 1021.9
20260901230956 77 247 2.0 8.0 0.00 0.00 0.00 48 1021.9
20260901230456 78 255 2.0 8.0 0.00 0.00 0.00 48 1021.9
20260901225956 79 223 2.0 8.0 0.00 0.00 0.00 47 1021.9
20260901225455 80 235 2.0 5.0 0.00 0.00 0.00 44 1021.9
20260901224953 80 276 2.0 8.0 0.00 0.00 0.00 46 1021.9
20260901224452 79 193 2.0 8.0 0.00 0.00 0.00 46 1022.0
20260901223952 79 142 4.0 9.0 0.00 0.00 0.00 47 1022.0
20260901223452 79 248 4.0 9.0 0.00 0.00 0.00 46 1022.0
20260901222950 79 241 2.0 8.0 0.00 0.00 0.00 47 1022.0
20260901222451 79 332 2.0 8.0 0.00 0.00 0.00 45 1022.2
20260901222215 79 250 2.0 8.0 0.00 0.00 0.00 47 1022.3
20260901221712 79 115 2.0 7.0 0.00 0.00 0.00 47 1022.3
20260901221211 79 277 1.0 5.0 0.00 0.00 0.00 48 1022.3
20260901220440 78 266 1.0 5.0 0.00 0.00 0.00 49 1022.4
20260901220212 78 291 3.0 8.0 0.00 0.00 0.00 48 1022.5
20260901215712 78 261 3.0 10.0 0.00 0.00 0.00 47 1022.5
20260901214934 78 240 2.0 10.0 0.00 0.00 0.00 48 1022.6
20260901214435 78 264 3.0 10.0 0.00 0.00 0.00 49 1022.6
20260901214207 78 129 3.0 10.0 0.00 0.00 0.00 48 1022.8
20260901213706 78 223 2.0 7.0 0.00 0.00 0.00 48 1022.8
20260901212935 78 257 2.0 7.0 0.00 0.00 0.00 46 1022.9
20260901212435 78 140 2.0 7.0 0.00 0.00 0.00 48 1022.9
20260901211931 78 245 3.0 7.0 0.00 0.00 0.00 46 1023.0
20260901211432 78 273 2.0 6.0 0.00 0.00 0.00 50 1023.0
20260901210930 78 286 3.0 10.0 0.00 0.00 0.00 49 1023.0
20260901210429 78 245 3.0 10.0 0.00 0.00 0.00 49 1023.0
20260901205929 78 244 2.0 10.0 0.00 0.00 0.00 49 1023.1
20260901205429 78 234 2.0 10.0 0.00 0.00 0.00 49 1023.1
20260901204922 78 276 3.0 11.0 0.00 0.00 0.00 49 1023.2
20260901204424 78 264 2.0 11.0 0.00 0.00 0.00 47 1023.2
20260901203924 78 91 1.0 6.0 0.00 0.00 0.00 50 1023.2
20260901203654 78 179 2.0 9.0 0.00 0.00 0.00 53 1023.4
20260901202923 77 197 3.0 9.0 0.00 0.00 0.00 50 1023.4
20260901202655 77 244 3.0 9.0 0.00 0.00 0.00 50 1023.5
20260901201919 77 112 2.0 9.0 0.00 0.00 0.00 50 1023.6
20260901201420 77 190 2.0 8.0 0.00 0.00 0.00 51 1023.6
20260901200919 77 118 2.0 8.0 0.00 0.00 0.00 51 1023.6
20260901200419 76 253 2.0 8.0 0.00 0.00 0.00 50 1023.7
20260901195918 77 255 2.0 9.0 0.00 0.00 0.00 51 1023.7
20260901195417 77 128 2.0 9.0 0.00 0.00 0.00 53 1023.8
20260901194910 76 239 3.0 9.0 0.00 0.00 0.00 52 1023.8
20260901194411 76 244 3.0 9.0 0.00 0.00 0.00 52 1023.8
20260901193913 76 234 3.0 8.0 0.00 0.00 0.00 53 1023.8
20260901193411 76 267 3.0 8.0 0.00 0.00 0.00 54 1023.9
20260901192912 76 251 2.0 9.0 0.00 0.00 0.00 54 1023.9
20260901192411 76 174 2.0 9.0 0.00 0.00 0.00 56 1024.1
20260901191906 76 238 3.0 7.0 0.00 0.00 0.00 56 1023.9
20260901191407 76 277 2.0 7.0 0.00 0.00 0.00 55 1024.1
20260901190907 77 257 2.0 8.0 0.00 0.00 0.00 54 1024.1
20260901190638 76 244 3.0 9.0 0.00 0.00 0.00 51 1024.1
20260901185906 77 262 1.0 9.0 0.00 0.00 0.00 52 1024.1
20260901185407 76 96 1.0 8.0 0.00 0.00 0.00 55 1024.1
20260901184901 76 88 2.0 8.0 0.00 0.00 0.00 51 1024.3
20260901184400 76 167 2.0 8.0 0.00 0.00 0.00 51 1024.2
20260901183901 76 253 3.0 7.0 0.00 0.00 0.00 52 1024.3
20260901183402 76 174 3.0 7.0 0.00 0.00 0.00 56 1024.3
20260901182859 76 127 2.0 7.0 0.00 0.00 0.00 53 1024.3
20260901182359 76 257 2.0 7.0 0.00 0.00 0.00 52 1024.3
20260901181854 76 164 2.0 7.0 0.00 0.00 0.00 52 1024.3
20260901181354 76 170 2.0 7.0 0.00 0.00 0.00 54 1024.3
20260901180855 76 118 2.0 7.0 0.00 0.00 0.00 53 1024.3
20260901180353 76 179 2.0 7.0 0.00 0.00 0.00 54 1024.3
20260901175853 76 105 1.0 5.0 0.00 0.00 0.00 55 1024.4
20260901175353 76 203 1.0 5.0 0.00 0.00 0.00 55 1024.3
20260901175117 76 154 1.0 6.0 0.00 0.00 0.00 53 1024.3
20260901174344 76 138 2.0 6.0 0.00 0.00 0.00 54 1024.4
20260901173843 76 152 3.0 6.0 0.00 0.00 0.00 54 1024.3
20260901173342 76 88 2.0 6.0 0.00 0.00 0.00 54 1024.3
20260901172841 76 149 1.0 5.0 0.00 0.00 0.00 55 1024.2
20260901172334 75 255 1.0 4.0 0.00 0.00 0.00 56 1024.2
20260901172106 75 151 1.0 5.0 0.00 0.00 0.00 54 1024.1
20260901171334 74 227 1.0 5.0 0.00 0.00 0.00 56 1024.1
20260901170335 74 257 1.0 5.0 0.00 0.00 0.00 56 1023.9
20260901165836 74 85 1.0 5.0 0.00 0.00 0.00 56 1023.9
20260901165331 74 140 1.0 4.0 0.00 0.00 0.00 56 1023.9
20260901164827 74 147 1.0 4.0 0.00 0.00 0.00 57 1023.9
20260901164325 74 246 0.0 3.0 0.00 0.00 0.00 56 1023.9
20260901163823 74 188 0.0 5.0 0.00 0.00 0.00 57 1023.9
20260901163324 74 130 1.0 5.0 0.00 0.00 0.00 59 1023.8
20260901162818 74 151 0.0 4.0 0.00 0.00 0.00 57 1023.8
20260901162549 74 136 0.0 4.0 0.00 0.00 0.00 61 1023.8
20260901161816 73 48 1.0 4.0 0.00 0.00 0.00 61 1023.7
20260901161317 73 48 0.0 4.0 0.00 0.00 0.00 60 1023.8
20260901160817 73 77 0.0 4.0 0.00 0.00 0.00 61 1023.8
20260901160318 72 86 1.0 3.0 0.00 0.00 0.00 63 1023.7
20260901155810 72 106 1.0 3.0 0.00 0.00 0.00 65 1023.8
20260901155311 72 101 1.0 3.0 0.00 0.00 0.00 64 1023.8
20260901154812 71 109 1.0 3.0 0.00 0.00 0.00 64 1023.8
20260901154311 71 100 1.0 3.0 0.00 0.00 0.00 62 1023.8
20260901153811 71 107 0.0 3.0 0.00 0.00 0.00 60 1023.8
20260901153311 71 100 0.0 2.0 0.00 0.00 0.00 62 1023.8
20260901152809 70 101 0.0 2.0 0.00 0.00 0.00 61 1023.8
20260901152306 69 100 0.0 2.0 0.00 0.00 0.00 67 1023.8
20260901151807 68 101 0.0 2.0 0.00 0.00 0.00 69 1023.8
20260901151307 68 105 0.0 2.0 0.00 0.00 0.00 71 1023.7
20260901150805 67 108 0.0 2.0 0.00 0.00 0.00 73 1023.7
20260901150306 66 39 1.0 3.0 0.00 0.00 0.00 72 1023.7
20260901145801 65 70 1.0 4.0 0.00 0.00 0.00 74 1023.7
20260901145301 65 70 1.0 4.0 0.00 0.00 0.00 75 1023.7
20260901144801 64 79 1.0 5.0 0.00 0.00 0.00 79 1023.7
20260901144302 63 88 2.0 5.0 0.00 0.01 0.00 79 1023.7
20260901143258 61 85 2.0 7.0 0.00 0.01 0.00 82 1023.6
20260901142754 60 39 3.0 7.0 0.00 0.01 0.00 83 1023.7
20260901142254 60 69 4.0 8.0 0.00 0.01 0.00 83 1023.7
20260901141254 58 60 4.0 7.0 0.00 0.01 0.00 86 1023.6
20260901140754 57 79 4.0 6.0 0.00 0.01 0.00 87 1023.6
20260901140525 57 73 3.0 5.0 0.00 0.01 0.00 88 1023.7
20260901140018 56 94 3.0 5.0 0.00 0.01 0.00 90 1023.6
20260901135248 55 73 3.0 5.0 0.00 0.01 0.00 91 1023.6
20260901134746 55 92 2.0 4.0 0.00 0.01 0.00 91 1023.7
20260901134248 54 91 1.0 3.0 0.00 0.01 0.00 92 1023.6
20260901133747 54 104 1.0 3.0 0.00 0.01 0.00 92 1023.6
20260901133248 53 104 2.0 4.0 0.00 0.01 0.00 92 1023.5
20260901132742 53 104 2.0 4.0 0.00 0.01 0.00 92 1023.5
20260901132240 53 102 2.0 5.0 0.00 0.01 0.00 92 1023.4
20260901131742 53 92 3.0 5.0 0.00 0.01 0.00 91 1023.4
20260901131512 53 87 3.0 6.0 0.00 0.01 0.00 91 1023.2
20260901130742 53 95 3.0 6.0 0.00 0.01 0.00 92 1023.2
20260901130241 53 72 4.0 6.0 0.00 0.01 0.00 93 1023.2
20260901130007 53 71 4.0 6.0 0.00 0.01 0.00 94 1023.2
20260901125234 52 91 3.0 5.0 0.00 0.01 0.00 93 1023.2
20260901124747 52 113 3.0 5.0 0.00 0.01 0.00 93 1023.2
20260901124235 53 100 3.0 5.0 0.00 0.01 0.00 93 1023.1
20260901124007 53 96 3.0 5.0 0.00 0.01 0.00 93 1023.0
20260901123235 53 105 3.0 5.0 0.00 0.01 0.00 93 1023.0
20260901122732 53 82 3.0 5.0 0.00 0.01 0.00 93 1023.0
20260901122231 53 83 3.0 5.0 0.00 0.01 0.00 93 1023.0
20260901122002 53 91 3.0 5.0 0.00 0.01 0.00 93 1023.0
20260901121231 53 96 2.0 5.0 0.00 0.01 0.00 93 1023.0
20260901120730 53 104 2.0 5.0 0.00 0.01 0.00 93 1023.0
20260901120231 53 99 1.0 5.0 0.00 0.01 0.00 93 1023.0
20260901115224 53 107 0.0 3.0 0.00 0.01 0.00 92 1022.9
20260901114724 53 102 0.0 3.0 0.00 0.01 0.00 91 1022.8
20260901113723 54 117 2.0 5.0 0.00 0.01 0.00 91 1022.8
20260901113223 54 117 3.0 5.0 0.00 0.01 0.00 91 1022.6
20260901112220 54 94 4.0 6.0 0.00 0.01 0.00 91 1022.5
20260901111951 54 87 4.0 6.0 0.00 0.01 0.00 92 1022.5
20260901111217 54 86 4.0 7.0 0.00 0.01 0.00 92 1022.5
20260901110718 54 86 4.0 7.0 0.00 0.01 0.00 92 1022.5